[[{"header":{"parameterUnit":"m.s-1","parameterCategory":1,"la1":30.2991,"la2":30.254,"lo1":-89.0895,"lo2":-89.0444,"dy":0.0017,"dx":0.0017,"nx":28,"ny":28,"refTime":"2024-08-05T03:00:00:Z","depth":0,"parameterNumber":2,"parameterNumberName":"U-component_of_WINDS"},"data":[0,0,0,0,0,0,0,0,0,0,0,0,0,0,0,0,0,0,0,0,0,0,0,0,0,0,0,0,0,0,0,0,0,0,0,0,0,0,0,0,0,0,0,0,0,0,0,0,0,0,0,0,0,0,0,0,0,0,-1.1091,-1.1092,0,-1.1215,-1.1217,-1.1218,-1.1171,-1.1168,-1.1165,-1.1162,-1.1296,-1.1302,-1.1308,0,0,0,0,0,0,0,0,0,0,0,0,0,-1.0816,-1.0821,-1.109,-1.1092,-1.1094,-1.1215,-1.1217,-1.1219,-1.1171,-1.1168,-1.1164,-1.1161,-1.1294,-1.1301,-1.1308,0,0,0,0,0,0,0,0,0,0,0,0,0,-1.0937,-1.0823,-1.109,-1.1085,-1.1085,-1.1215,-1.1217,-1.1219,-1.1172,-1.1168,-1.1164,-1.116,-1.1291,-1.13,-1.1309,-1.1454,0,0,-1.1338,-1.1342,0,0,0,0,0,0,0,0,-1.0931,-1.0948,-1.1084,-1.1085,-1.1086,-1.1173,-1.1169,-1.1298,-1.1173,-1.1139,-1.1162,-1.1157,-1.1259,-1.127,-1.1304,-1.146,-1.1466,-1.1339,-1.1345,-1.1349,-1.1351,0,0,0,0,0,0,0,-1.0922,-1.0942,-1.114,-1.1086,-1.1087,-1.1077,-1.109,-1.1193,-1.1222,-1.1142,-1.1139,-1.1154,-1.1259,-1.1295,-1.1306,-1.1468,-1.1339,-1.1347,-1.1353,-1.1356,-1.175,-1.1755,0,0,0,0,0,0,-1.0913,-1.0935,-1.1136,-1.1144,-1.0996,-1.1086,-1.11,-1.115,-1.1221,-1.1227,-1.1158,-1.1151,-1.1281,-1.1295,-1.1311,-1.1486,-1.1348,-1.1357,-1.1363,-1.1745,-1.1751,-1.1756,0,0,0,0,0,0,-1.0907,-1.0931,-1.1131,-1.1039,-1.1063,-1.1095,-1.1152,-1.1154,-1.119,-1.1232,-1.1238,-1.1189,-1.1278,-1.1298,-1.1419,-1.149,-1.1361,-1.137,-1.174,-1.1747,-1.1754,-1.1837,0,0,0,0,0,0,-1.0899,-1.0929,-1.0983,-1.104,-1.1068,-1.1236,-1.1156,-1.116,-1.1206,-1.1199,-1.1263,-1.127,-1.1276,-1.1405,-1.1428,-1.1501,-1.1377,-1.1733,-1.1743,-1.1752,-1.1828,-1.1846,-1.1862,0,0,0,0,0,-1.089,-1.1003,-1.0986,-1.1011,-1.1137,-1.124,-1.1256,-1.126,-1.1212,-1.1268,-1.1294,-1.1268,-1.1478,-1.1418,-1.1443,-1.152,-1.1729,-1.174,-1.1751,-1.1821,-1.1843,-1.1862,0,0,0,0,0,0,-1.0955,-1.101,-1.0993,-1.1127,-1.1179,-1.1232,-1.1302,-1.1283,-1.1351,-1.1342,-1.1344,-1.136,-1.1485,-1.1514,-1.1446,-1.1664,-1.1596,-1.1613,-1.1641,-1.1662,-1.1679,-1.1671,-1.1385,0,0,0,0,0,-1.0985,-1.1063,-1.1107,-1.1221,-1.1248,-1.127,-1.1316,-1.1314,-1.1368,-1.1391,-1.1426,-1.1482,-1.156,-1.1612,-1.1687,-1.1831,-1.1846,-1.1896,-1.1913,-1.1927,-1.1942,-1.2023,-1.2047,-1.1792,-1.1792,-1.1792,0,0,-1.1048,-1.1088,-1.1137,-1.1236,-1.1276,-1.1358,-1.129,-1.1379,-1.1441,-1.1405,-1.1522,-1.1549,-1.1611,-1.1745,-1.1806,-1.1773,-1.2015,-1.1941,-1.1951,-1.196,-1.2036,-1.2061,-1.2082,-1.18,-1.1798,-1.1797,0,0,-1.1206,-1.1242,-1.1343,-1.1384,-1.1445,-1.1459,-1.1483,-1.1538,-1.1555,-1.1671,-1.1646,-1.172,-1.1855,-1.19,-1.1941,-1.2115,-1.2095,-1.2139,-1.2229,-1.2308,-1.2328,-1.2345,-1.241,-1.2433,-1.2154,-1.2154,-1.2154,0,-1.1278,-1.14,-1.1397,-1.149,-1.1535,-1.1503,-1.1606,-1.1646,-1.1729,-1.1762,-1.1723,-1.1892,-1.1931,-1.2076,-1.2118,-1.2151,-1.2181,-1.2134,-1.2324,-1.2342,-1.2359,-1.2421,-1.2445,-1.2159,-1.2159,-1.2158,-1.2158,0,-1.1486,-1.1571,-1.1645,-1.1724,-1.1777,-1.1874,-1.1888,-1.1942,-1.1935,-1.1953,-1.2073,-1.2119,-1.2203,-1.2236,-1.223,-1.2381,-1.2359,-1.2322,-1.2256,-1.2389,-1.2447,-1.2471,-1.2167,-1.2165,-1.2164,-1.2162,0,0,-1.1692,-1.1768,-1.1795,-1.1831,-1.1895,-1.1962,-1.2057,-1.2138,-1.2185,-1.2243,-1.2325,-1.2439,-1.2406,-1.2452,-1.2451,-1.2519,-1.2658,-1.2475,-1.2476,-1.251,-1.2829,-1.2859,-1.2886,-1.2642,-1.2646,-1.265,-1.2825,0,-1.1858,-1.2025,-1.2025,-1.218,-1.226,-1.223,-1.2314,-1.2363,-1.2383,-1.2454,-1.2475,-1.2558,-1.2506,-1.2534,-1.26,-1.2627,-1.2722,-1.2614,-1.2722,-1.2726,-1.2711,-1.2916,-1.2948,-1.3111,-1.2847,-1.2851,-1.2854,0,-1.2074,-1.2137,-1.23,-1.2353,-1.2386,-1.2461,-1.2536,-1.2603,-1.2659,-1.2668,-1.2719,-1.2708,-1.2807,-1.2734,-1.2873,-1.2799,-1.2842,-1.2862,-1.2869,-1.2882,-1.2801,-1.2938,-1.3162,-1.3188,-1.2889,-1.2887,-1.2884,0,-1.2212,-1.2337,-1.2451,-1.2483,-1.2547,-1.2601,-1.263,-1.2681,-1.2729,-1.2794,-1.2826,-1.2902,-1.2945,-1.3004,-1.3014,-1.2959,-1.3154,-1.3081,-1.3167,-1.3167,-1.3213,-1.321,-1.345,-1.3235,-1.3234,-1.3234,-1.3233,0,-1.2399,-1.25,-1.2514,-1.2585,-1.2698,-1.2697,-1.281,-1.2835,-1.2881,-1.2957,-1.2935,-1.3007,-1.3014,-1.3089,-1.3097,-1.3212,-1.323,-1.3242,-1.3244,-1.3247,-1.3246,-1.3278,-1.3268,-1.324,-1.3239,-1.3238,-1.3237,0,-1.2574,-1.2587,-1.271,-1.2759,-1.2774,-1.2856,-1.2899,-1.2967,-1.2983,-1.308,-1.3103,-1.3129,-1.3216,-1.323,-1.3333,-1.3338,-1.3477,-1.3465,-1.3458,-1.3458,-1.3544,-1.3537,-1.3816,-1.3854,-1.3611,-1.3613,-1.3615,0,-1.2694,-1.2771,-1.2829,-1.2877,-1.2909,-1.2988,-1.3037,-1.3039,-1.3091,-1.316,-1.322,-1.3304,-1.3372,-1.3513,-1.3542,-1.3621,-1.3613,-1.3705,-1.3625,-1.3625,-1.3618,-1.3615,-1.3624,-1.3722,-1.3725,-1.3727,-1.3729,0,-1.2907,-1.291,-1.298,-1.3054,-1.3112,-1.317,-1.3225,-1.3267,-1.3276,-1.3336,-1.3424,-1.3476,-1.358,-1.3665,-1.3742,-1.3774,-1.3755,-1.3753,-1.3778,-1.3783,-1.3777,-1.3784,-1.3504,-1.3748,-1.3746,-1.3744,-1.3743,-1.3743,-1.3061,-1.3129,-1.318,-1.326,-1.33,-1.3352,-1.3419,-1.3443,-1.3515,-1.36,-1.3596,-1.3693,-1.3747,-1.3849,-1.3886,-1.3963,-1.3934,-1.3969,-1.3978,-1.3988,-1.3998,-1.3761,-1.3977,-1.3976,-1.3976,-1.3975,-1.3975,0,-1.3276,-1.3306,-1.3379,-1.3456,-1.352,-1.3492,-1.3551,-1.3606,-1.3692,-1.3743,-1.3809,-1.3911,-1.3993,-1.4028,-1.4108,-1.4164,-1.4157,-1.4185,-1.4183,-1.4191,-1.4018,-1.399,-1.419,-1.419,-1.4189,-1.4189,-1.4189,-1.4189,-1.3395,-1.3509,-1.3517,-1.3652,-1.3682,-1.3776,-1.3813,-1.3861,-1.3902,-1.4016,-1.4083,-1.4104,-1.415,-1.4233,-1.4308,-1.4316,-1.4348,-1.4382,-1.4386,-1.4225,-1.4203,-1.4183,-1.4157,-1.4388,-1.4388,-1.4554,-1.4555,-1.4556]},{"header":{"parameterUnit":"m.s-1","parameterCategory":1,"la1":30.2991,"la2":30.254,"lo1":-89.0895,"lo2":-89.0444,"dy":0.0017,"dx":0.0017,"nx":28,"ny":28,"refTime":"2024-08-05T03:00:00:Z","depth":0,"parameterNumber":3,"parameterNumberName":"V-component_of_WINDS"},"data":[0,0,0,0,0,0,0,0,0,0,0,0,0,0,0,0,0,0,0,0,0,0,0,0,0,0,0,0,0,0,0,0,0,0,0,0,0,0,0,0,0,0,0,0,0,0,0,0,0,0,0,0,0,0,0,0,0,0,-3.9866,-3.9867,0,-4.002,-4.0022,-4.0024,-3.9997,-3.9994,-3.9992,-3.9989,-4.0147,-4.0154,-4.0161,0,0,0,0,0,0,0,0,0,0,0,0,0,-3.9547,-3.9553,-3.9866,-3.9868,-3.987,-4.002,-4.0022,-4.0024,-3.9997,-3.9994,-3.9991,-3.9988,-4.0145,-4.0153,-4.0161,0,0,0,0,0,0,0,0,0,0,0,0,0,-3.9692,-3.9555,-3.9865,-3.9874,-3.9877,-4.002,-4.0022,-4.0025,-3.9998,-3.9994,-3.999,-3.9986,-4.0142,-4.0152,-4.0162,-4.0306,0,0,-4.0193,-4.0198,0,0,0,0,0,0,0,0,-3.9684,-3.9704,-3.9871,-3.9874,-3.9877,-3.9985,-3.9968,-4.0119,-3.9999,-3.9952,-3.9989,-3.9984,-4.0097,-4.011,-4.0148,-4.0314,-4.032,-4.0194,-4.02,-4.0205,-4.0207,0,0,0,0,0,0,0,-3.9674,-3.9697,-3.9927,-3.9873,-3.9877,-3.9871,-3.9887,-3.9996,-4.0045,-3.9956,-3.9954,-3.9973,-4.0097,-4.0139,-4.0152,-4.0323,-4.0194,-4.0203,-4.0209,-4.0213,-4.0614,-4.0619,0,0,0,0,0,0,-3.9661,-3.9689,-3.9922,-3.9931,-3.9768,-3.988,-3.9898,-3.9955,-4.0044,-4.0054,-3.9976,-3.9971,-4.0123,-4.014,-4.0157,-4.0332,-4.0204,-4.0214,-4.022,-4.061,-4.0615,-4.062,0,0,0,0,0,0,-3.9654,-3.9682,-3.9916,-3.981,-3.9839,-3.9889,-3.9954,-3.996,-4.0001,-4.0059,-4.0068,-4.0009,-4.0121,-4.0143,-4.0269,-4.0337,-4.0219,-4.0228,-4.0604,-4.0611,-4.0618,-4.0683,0,0,0,0,0,0,-3.9645,-3.968,-3.9735,-3.9811,-3.9845,-4.0026,-3.9958,-3.9966,-4.0018,-4.0013,-4.0093,-4.0102,-4.0119,-4.0255,-4.028,-4.0349,-4.0236,-4.0598,-4.0608,-4.0616,-4.0675,-4.0691,-4.0705,0,0,0,0,0,-3.9634,-3.9747,-3.9738,-3.9766,-3.9915,-4.003,-4.0049,-4.0066,-4.0024,-4.008,-4.0118,-4.0099,-4.0326,-4.0268,-4.0296,-4.0369,-4.0594,-4.0605,-4.0615,-4.0668,-4.0688,-4.0705,0,0,0,0,0,0,-3.9678,-3.9757,-3.9748,-3.9889,-3.9953,-4.0025,-4.0096,-4.0087,-4.0164,-4.0156,-4.0174,-4.0192,-4.0321,-4.0357,-4.0291,-4.0513,-4.0454,-4.047,-4.0485,-4.0504,-4.0519,-4.0508,-4.0244,0,0,0,0,0,-3.9703,-3.979,-3.9855,-3.9973,-4.0006,-4.0045,-4.0096,-4.0104,-4.0171,-4.0197,-4.0244,-4.031,-4.0395,-4.0452,-4.0534,-4.068,-4.0697,-4.0744,-4.0759,-4.0771,-4.0786,-4.0866,-4.0888,-4.0654,-4.0654,-4.0654,0,0,-3.9758,-3.9812,-3.9866,-3.9983,-4.0034,-4.0123,-4.0068,-4.0165,-4.0232,-4.0212,-4.0335,-4.0371,-4.0445,-4.0583,-4.0645,-4.0617,-4.0854,-4.0784,-4.0794,-4.0802,-4.0879,-4.0901,-4.0921,-4.0661,-4.066,-4.0659,0,0,-3.9904,-3.9953,-4.0058,-4.0109,-4.0186,-4.0212,-4.0237,-4.031,-4.0334,-4.0457,-4.0445,-4.0524,-4.0671,-4.0725,-4.0771,-4.0937,-4.0924,-4.0963,-4.1042,-4.1121,-4.1139,-4.1156,-4.1216,-4.1237,-4.0977,-4.0977,-4.0977,0,-3.9962,-4.0096,-4.0112,-4.0211,-4.0263,-4.0249,-4.0355,-4.0404,-4.0504,-4.0541,-4.0508,-4.0692,-4.0741,-4.0891,-4.0932,-4.0969,-4.0999,-4.0955,-4.1135,-4.1152,-4.1167,-4.1225,-4.1247,-4.0982,-4.0981,-4.0981,-4.098,0,-4.0165,-4.0258,-4.0333,-4.043,-4.049,-4.0592,-4.0624,-4.0683,-4.0685,-4.0715,-4.0841,-4.0899,-4.0993,-4.1028,-4.1032,-4.1179,-4.1159,-4.1131,-4.1072,-4.1194,-4.1248,-4.127,-4.0988,-4.0986,-4.0985,-4.0984,0,0,-4.0343,-4.0447,-4.0475,-4.0519,-4.0602,-4.0675,-4.0776,-4.0868,-4.0919,-4.0988,-4.1073,-4.1198,-4.1172,-4.1225,-4.1234,-4.1303,-4.1432,-4.1266,-4.1268,-4.1295,-4.1598,-4.162,-4.1645,-4.1423,-4.1427,-4.143,-4.1592,0,-4.0497,-4.0676,-4.0693,-4.0853,-4.094,-4.0928,-4.1016,-4.1077,-4.1107,-4.1185,-4.1217,-4.1306,-4.1265,-4.1297,-4.1364,-4.1402,-4.1493,-4.139,-4.1503,-4.1507,-4.1486,-4.1673,-4.1697,-4.1847,-4.1613,-4.1617,-4.162,0,-4.0701,-4.0776,-4.0945,-4.1017,-4.1054,-4.1133,-4.1219,-4.1293,-4.1362,-4.1379,-4.1438,-4.1438,-4.1543,-4.1479,-4.1623,-4.1553,-4.16,-4.1625,-4.1631,-4.1643,-4.1571,-4.1691,-4.1895,-4.1918,-4.1653,-4.165,-4.1648,0,-4.0815,-4.0959,-4.1079,-4.1116,-4.1203,-4.1259,-4.1298,-4.1363,-4.1417,-4.1492,-4.1527,-4.1613,-4.1661,-4.1727,-4.175,-4.1702,-4.1894,-4.1832,-4.1911,-4.1911,-4.1953,-4.1951,-4.2168,-4.1982,-4.1982,-4.1981,-4.1981,0,-4.0986,-4.109,-4.1131,-4.1205,-4.1321,-4.134,-4.1454,-4.149,-4.1548,-4.1629,-4.1623,-4.1699,-4.1725,-4.1805,-4.1824,-4.1941,-4.1962,-4.1979,-4.1983,-4.198,-4.1978,-4.2012,-4.2002,-4.1987,-4.1986,-4.1985,-4.1984,0,-4.1134,-4.1165,-4.1295,-4.1367,-4.1387,-4.147,-4.1531,-4.1602,-4.163,-4.1733,-4.1758,-4.1803,-4.1897,-4.1926,-4.204,-4.2052,-4.2189,-4.2183,-4.2166,-4.2167,-4.2245,-4.2238,-4.2494,-4.2528,-4.2318,-4.232,-4.2322,0,-4.1241,-4.1321,-4.1401,-4.1455,-4.1496,-4.1583,-4.1638,-4.1659,-4.1717,-4.1802,-4.1863,-4.1956,-4.2032,-4.2183,-4.2226,-4.2312,-4.2309,-4.2393,-4.2322,-4.2317,-4.2312,-4.2307,-4.2316,-4.2406,-4.2409,-4.241,-4.2412,0,-4.1429,-4.1441,-4.1521,-4.1608,-4.1674,-4.1743,-4.1809,-4.1853,-4.1884,-4.1949,-4.2046,-4.2104,-4.222,-4.2313,-4.2401,-4.2441,-4.2433,-4.2433,-4.2457,-4.2455,-4.2443,-4.2452,-4.2204,-4.2428,-4.2426,-4.2425,-4.2424,-4.2423,-4.1561,-4.1632,-4.1699,-4.1789,-4.1841,-4.1903,-4.1974,-4.2011,-4.2092,-4.2188,-4.2195,-4.23,-4.2367,-4.2484,-4.2529,-4.261,-4.2587,-4.262,-4.2629,-4.2637,-4.2644,-4.2429,-4.2626,-4.2626,-4.2626,-4.2625,-4.2625,0,-4.175,-4.1792,-4.1875,-4.1968,-4.2039,-4.2023,-4.2096,-4.2156,-4.2248,-4.2311,-4.2386,-4.2497,-4.2587,-4.2636,-4.2726,-4.2782,-4.278,-4.2805,-4.2802,-4.2811,-4.2659,-4.2631,-4.2805,-4.2805,-4.2805,-4.2805,-4.2805,-4.2805,-4.1856,-4.1975,-4.1995,-4.214,-4.2182,-4.2284,-4.2327,-4.2384,-4.2435,-4.2559,-4.2634,-4.2665,-4.2723,-4.2817,-4.2899,-4.2911,-4.2945,-4.2973,-4.2983,-4.284,-4.2822,-4.2804,-4.2778,-4.298,-4.298,-4.3128,-4.3129,-4.313]}]]